New Richmond, WI

3:07 PM CDT on March 27, 2017 (GMT -0500)
New Richmond Municipal

Weather History for KRNH - February, 2012

Change the Weather History Date:

Wednesday, February 29, 2012

  Actual Average (KSTP) Record (KSTP)
Temperature  
Mean Temperature 32 °F -  
Max Temperature 33 °F 29 °F 48 °F (2004)
Min Temperature 32 °F 16 °F 15 °F (2008)
Degree Days  
Heating Degree Days 32    
Moisture  
Dew Point 32 °F    
Average Humidity 98    
Maximum Humidity 100    
Minimum Humidity 93    
Precipitation  
Precipitation 0.43 in - - ()
Sea Level Pressure  
Sea Level Pressure 29.39 in    
Wind  
Wind Speed 9 mph (ENE)    
Max Wind Speed 14 mph    
Max Gust Speed 18 mph    
Visibility 6 miles    
Events Rain , Snow    
Averages and records for this station are not official NWS values.
T = Trace of Precipitation, MM = Missing Value Source: NWS Daily Summary

Daily Weather History Graph

Daily Weather History Graph

Search for Another Location

Airport or City:

Trip Planner

Search our weather history database for the weather conditions in past years. The results will help you decide how hot, cold, wet, or windy it might be!

Date:

Astronomy

Feb. 29, 2012 Rise Set
Actual Time 6:48 AM CST 5:56 PM CST
Civil Twilight 6:19 AM CST 6:26 PM CST
Nautical Twilight 5:45 AM CST 7:00 PM CST
Astronomical Twilight 5:11 AM CST 7:34 PM CST
Moon 10:18 AM CST (2/29) 1:05 AM CST (2/29)
Length of Visible Light 12h 06m
Length of Day
11h 07m
Waxing Crescent, 47% of the Moon is Illuminated
Feb 29
Waxing Crescent
Feb 29
First Quarter
Mar 8
Full
Mar 14
Last Quarter
Mar 22
New

Hourly Weather History & Observations

Time (CST) Temp. Windchill Dew Point Humidity Pressure Visibility Wind Dir Wind Speed Gust Speed Precip Events Conditions
12:15 AM 32.0 °F 24.2 °F 32.0 °F 100% 29.66 in 4.0 mi East 9.2 mph - N/A Snow Light Snow
12:35 AM 32.0 °F 23.6 °F 32.0 °F 100% 29.64 in 3.0 mi East 10.4 mph - N/A Snow Light Snow
12:55 AM 32.0 °F 24.2 °F 32.0 °F 100% 29.62 in 4.0 mi East 9.2 mph - N/A Snow Light Snow
1:15 AM 32.0 °F 23.6 °F 32.0 °F 100% 29.59 in 7.0 mi East 10.4 mph 16.1 mph N/A Snow Light Snow
1:35 AM 32.0 °F 23.6 °F 32.0 °F 100% 29.57 in 4.0 mi East 10.4 mph - N/A Rain Light Rain
1:55 AM 32.0 °F 24.2 °F 32.0 °F 100% 29.53 in 7.0 mi East 9.2 mph - N/A Rain Light Rain
2:15 AM 32.0 °F 24.2 °F 32.0 °F 100% 29.51 in 10.0 mi East 9.2 mph - N/A Snow Light Snow
2:35 AM 32.0 °F 24.2 °F 32.0 °F 100% 29.49 in 4.0 mi East 9.2 mph - N/A Snow Light Snow
2:55 AM 32.0 °F 25.6 °F 32.0 °F 100% 29.47 in 5.0 mi East 6.9 mph - N/A   Overcast
3:15 AM 32.0 °F 24.8 °F 32.0 °F 100% 29.44 in 5.0 mi East 8.1 mph - N/A Rain Light Rain
3:35 AM 32.0 °F 26.4 °F 32.0 °F 100% 29.41 in 3.0 mi East 5.8 mph - N/A Snow Light Snow
3:55 AM 32.0 °F 24.8 °F 32.0 °F 100% 29.38 in 5.0 mi East 8.1 mph - N/A Snow Light Snow
4:15 AM 32.0 °F 25.6 °F 32.0 °F 100% 29.36 in 2.5 mi East 6.9 mph - N/A Snow Light Snow
4:35 AM 32.0 °F 24.8 °F 32.0 °F 100% 29.34 in 1.5 mi East 8.1 mph - N/A Snow Light Snow
4:55 AM 32.0 °F 24.8 °F 32.0 °F 100% 29.32 in 1.0 mi East 8.1 mph - N/A Snow Light Snow
5:15 AM 32.0 °F 25.6 °F 32.0 °F 100% 29.33 in 1.2 mi East 6.9 mph - N/A Snow Light Snow
5:35 AM 32.0 °F 24.8 °F 32.0 °F 100% 29.32 in 1.5 mi East 8.1 mph - N/A Snow Light Snow
5:55 AM 32.0 °F 25.6 °F 32.0 °F 100% 29.31 in 0.8 mi East 6.9 mph - N/A Snow Snow
6:15 AM 32.0 °F 24.2 °F 32.0 °F 100% 29.29 in 1.2 mi East 9.2 mph - N/A Snow Light Snow
6:35 AM 32.0 °F 24.2 °F 32.0 °F 100% 29.28 in 1.5 mi East 9.2 mph - N/A Snow Light Snow
6:55 AM 32.0 °F 24.8 °F 32.0 °F 100% 29.27 in 3.0 mi East 8.1 mph - N/A Snow Light Snow
7:15 AM 32.0 °F 24.8 °F 32.0 °F 100% 29.26 in 2.0 mi East 8.1 mph - N/A Snow Light Snow
7:35 AM 32.0 °F 26.4 °F 32.0 °F 100% 29.27 in 5.0 mi East 5.8 mph - N/A   Overcast
7:55 AM 32.0 °F 25.6 °F 32.0 °F 100% 29.27 in 7.0 mi East 6.9 mph - N/A   Overcast
8:15 AM 32.0 °F 26.4 °F 32.0 °F 100% 29.27 in 5.0 mi East 5.8 mph - N/A Snow Light Snow
8:35 AM 32.0 °F 26.4 °F 32.0 °F 100% 29.27 in 4.0 mi East 5.8 mph - N/A   Overcast
8:55 AM 32.0 °F 27.5 °F 32.0 °F 100% 29.27 in 1.8 mi East 4.6 mph - N/A   Overcast
9:15 AM 32.0 °F 26.4 °F 32.0 °F 100% 29.27 in 1.2 mi East 5.8 mph - 0.01 in Snow Light Snow
9:55 AM 32.0 °F 26.4 °F 32.0 °F 100% 29.27 in 1.5 mi East 5.8 mph - 0.05 in Snow Light Snow
10:15 AM 32.0 °F 27.5 °F 32.0 °F 100% 29.27 in 2.0 mi East 4.6 mph - 0.06 in Snow Light Snow
10:35 AM 32.0 °F 26.4 °F 32.0 °F 100% 29.27 in 4.0 mi East 5.8 mph - 0.10 in   Overcast
10:55 AM 32.0 °F 27.5 °F 32.0 °F 100% 29.27 in 4.0 mi East 4.6 mph - 0.11 in   Overcast
11:35 AM 32.0 °F 25.6 °F 32.0 °F 100% 29.28 in 5.0 mi East 6.9 mph - 0.01 in   Light Drizzle
11:55 AM 32.0 °F 25.6 °F 32.0 °F 100% 29.29 in 3.0 mi ENE 6.9 mph - 0.01 in Snow Light Snow
12:35 PM 32.0 °F 26.4 °F 32.0 °F 100% 29.30 in 7.0 mi NE 5.8 mph - N/A Rain Light Rain
12:55 PM 32.0 °F 25.6 °F 32.0 °F 100% 29.30 in 3.0 mi NNE 6.9 mph - N/A Rain Light Rain
1:15 PM 32.0 °F 25.6 °F 32.0 °F 100% 29.30 in 7.0 mi NNE 6.9 mph - 0.01 in Rain Light Rain
1:35 PM 32.0 °F 25.6 °F 32.0 °F 100% 29.31 in 4.0 mi NE 6.9 mph - 0.02 in Rain Light Rain
1:55 PM 32.0 °F 25.6 °F 32.0 °F 100% 29.32 in 5.0 mi NNE 6.9 mph - 0.03 in   Light Drizzle
2:15 PM 33.8 °F 26.4 °F 33.8 °F 100% 29.32 in 7.0 mi NE 9.2 mph - 0.01 in   Overcast
2:35 PM 33.8 °F 26.4 °F 33.8 °F 100% 29.32 in 10.0 mi NE 9.2 mph - 0.04 in   Overcast
2:55 PM 33.8 °F 27.0 °F 33.8 °F 100% 29.34 in 10.0 mi NNE 8.1 mph - 0.07 in   Overcast
3:15 PM 33.8 °F 25.8 °F 32.0 °F 93% 29.36 in 10.0 mi North 10.4 mph - 0.03 in   Overcast
3:35 PM 33.8 °F 26.4 °F 32.0 °F 93% 29.37 in 10.0 mi NNE 9.2 mph - 0.06 in   Overcast
3:55 PM 33.8 °F 26.4 °F 32.0 °F 93% 29.38 in 10.0 mi North 9.2 mph - 0.07 in   Overcast
4:15 PM 33.8 °F 27.0 °F 32.0 °F 93% 29.40 in 10.0 mi North 8.1 mph - 0.02 in   Overcast
4:35 PM 33.8 °F 24.8 °F 32.0 °F 93% 29.42 in 10.0 mi North 12.7 mph - 0.04 in   Overcast
4:55 PM 33.8 °F 24.3 °F 32.0 °F 93% 29.43 in 10.0 mi North 13.8 mph 17.3 mph 0.06 in   Overcast
5:15 PM 33.8 °F 24.3 °F 32.0 °F 93% 29.45 in 10.0 mi North 13.8 mph - 0.01 in   Overcast
5:35 PM 33.8 °F 24.3 °F 32.0 °F 93% 29.46 in 10.0 mi North 13.8 mph 18.4 mph 0.02 in   Overcast
5:55 PM 33.8 °F 24.8 °F 32.0 °F 93% 29.47 in 10.0 mi NNE 12.7 mph - 0.02 in   Overcast
6:15 PM 33.8 °F 25.8 °F 32.0 °F 93% 29.48 in 10.0 mi North 10.4 mph - N/A   Overcast
6:35 PM 32.0 °F 23.0 °F 32.0 °F 100% 29.49 in 10.0 mi NNE 11.5 mph - 0.01 in   Overcast
7:15 PM 32.0 °F 23.6 °F 32.0 °F 100% 29.53 in 10.0 mi North 10.4 mph - N/A   Overcast
7:35 PM 32.0 °F 23.0 °F 30.2 °F 93% 29.54 in 10.0 mi North 11.5 mph - N/A   Overcast
8:15 PM 32.0 °F 24.2 °F 30.2 °F 93% 29.58 in 10.0 mi NNW 9.2 mph - N/A   Overcast
8:35 PM 32.0 °F 23.6 °F 30.2 °F 93% 29.59 in 10.0 mi NNW 10.4 mph - N/A   Overcast
8:55 PM 32.0 °F 24.8 °F 30.2 °F 93% 29.61 in 10.0 mi NNW 8.1 mph - N/A   Overcast
9:15 PM 32.0 °F 23.6 °F 30.2 °F 93% 29.62 in 10.0 mi NNW 10.4 mph - N/A   Overcast
9:35 PM 32.0 °F 24.2 °F 30.2 °F 93% 29.63 in 10.0 mi NNW 9.2 mph - N/A   Overcast
9:55 PM 32.0 °F 24.2 °F 30.2 °F 93% 29.64 in 10.0 mi NW 9.2 mph - N/A   Overcast
10:15 PM 32.0 °F 24.8 °F 30.2 °F 93% 29.65 in 10.0 mi NW 8.1 mph - N/A   Overcast
10:35 PM 32.0 °F 23.6 °F 30.2 °F 93% 29.66 in 10.0 mi NNW 10.4 mph - N/A   Overcast
10:55 PM 32.0 °F 23.6 °F 30.2 °F 93% 29.67 in 10.0 mi NNW 10.4 mph - N/A   Overcast
11:15 PM 32.0 °F 22.5 °F 28.4 °F 87% 29.66 in 10.0 mi NNW 12.7 mph - N/A   Overcast
11:35 PM 32.0 °F 22.5 °F 28.4 °F 87% 29.67 in 10.0 mi North 12.7 mph - N/A   Overcast
11:55 PM 32.0 °F 23.6 °F 28.4 °F 87% 29.68 in 10.0 mi North 10.4 mph - N/A   Overcast